This is the latest recevied weather packets stored in our database for station/object N4NVD-13. If no packets are shown the sender has not sent any weather packets the latest 10 day(s).
| Time | Temp. | Humidity | Pressure | Rain* | Wind** | Luminosity | Snow |
|---|---|---|---|---|---|---|---|
| 1778101836 | 21.67° C | 85% | 1010 hPa | 0 mm | - | 188 W/m² | - |
| 1778101533 | 22.22° C | 84% | 1009.9 hPa | 0 mm | - | 170 W/m² | - |
| 1778101230 | 22.78° C | 84% | 1010.1 hPa | 0 mm | - | 104 W/m² | - |
| 1778100926 | 22.78° C | 85% | 1010 hPa | 0 mm | - | 120 W/m² | - |
| 1778100622 | 22.78° C | 85% | 1009.5 hPa | 0 mm | - | 137 W/m² | - |
| 1778100320 | 23.33° C | 85% | 1010 hPa | 0 mm | - | 89 W/m² | - |
| 1778100016 | 23.33° C | 85% | 1009.8 hPa | 0 mm | - | 117 W/m² | - |
| 1778099715 | 23.89° C | 85% | 1009.7 hPa | 0 mm | - | 88 W/m² | - |
| 1778099411 | 23.89° C | 85% | 1009.4 hPa | 0 mm | - | 103 W/m² | - |
| 1778099108 | 25° C | 86% | 1009.5 hPa | 0 mm | - | 65 W/m² | - |
| 1778098804 | 25° C | 86% | 1009.4 hPa | 0 mm | - | 132 W/m² | - |
| 1778098503 | 25.56° C | 85% | 1009.5 hPa | 0 mm | - | 89 W/m² | - |
| 1778098199 | 26.11° C | 84% | 1009.4 hPa | 0 mm | - | 196 W/m² | - |
| 1778097895 | 26.67° C | 84% | 1009.4 hPa | 0 mm | - | 415 W/m² | - |
| 1778097591 | 25.56° C | 86% | 1009.4 hPa | 0 mm | - | 528 W/m² | - |
| 1778097289 | 26.11° C | 84% | 1009.5 hPa | 0 mm | - | 360 W/m² | - |
| 1778096985 | 25.56° C | 86% | 1009.5 hPa | 0 mm | - | 373 W/m² | - |
| 1778096683 | 25° C | 85% | 1009.5 hPa | 0 mm | - | 475 W/m² | - |
| 1778096379 | 26.11° C | 83% | 1009.6 hPa | 0 mm | - | 653 W/m² | - |
| 1778096076 | 25.56° C | 84% | 1009.6 hPa | 0 mm | - | 527 W/m² | - |
| 1778095773 | 25° C | 84% | 1009.6 hPa | 0 mm | - | 406 W/m² | - |
| 1778095470 | 25° C | 83% | 1009.6 hPa | 0 mm | - | 454 W/m² | - |
| 1778095166 | 25° C | 84% | 1009.5 hPa | 0 mm | - | 609 W/m² | - |
| 1778094862 | 25° C | 84% | 1009.8 hPa | 0 mm | - | 697 W/m² | - |
| 1778094554 | 25° C | 84% | 1009.8 hPa | 0 mm | - | 653 W/m² | - |
* Rain latest hour (hover to see other rain measurements)
** Current wind speed in m/s (hover to see current wind gust speed)